When you browse on this site, cookies collect data to enhance your experience and personalize the content and advertising you see.
Visit our Privacy Policy to learn more. By continuing to use the site, you agree to this use of cookies and data.
  • în România
  • Lista ţărilor
  • Pe 7 zile
  • Temperatura apei
  • Hartă satelitară
  • Meteo pe hartă
  • Widget-uri
  • user-avatar
    Intrare

    Meteo pe oră la Carevo

    Astăzi, 17 Iulie, Miercuri

    Timp Temperatura Precipitaţii Vânt Presiune Umiditate
    00:00 +11°C° 0 mm 1 m/s 739 mmHg 93%
    01:00 +10°C° 0 mm 1 m/s 738 mmHg 94%
    02:00 +10°C° 0 mm 1 m/s 738 mmHg 96%
    03:00 +11°C° 0 mm 1 m/s 738 mmHg 94%
    04:00 +11°C° 0 mm 1 m/s 738 mmHg 93%
    05:00 +12°C° 0 mm 1 m/s 738 mmHg 92%
    06:00 +13°C° 0 mm 1 m/s 738 mmHg 85%
    07:00 +15°C° 0 mm 1 m/s 738 mmHg 78%
    08:00 +18°C° 0 mm 1 m/s 738 mmHg 71%
    09:00 +20°C° 0 mm 1 m/s 738 mmHg 66%
    10:00 +21°C° 0 mm 1 m/s 738 mmHg 61%
    11:00 +22°C° 0 mm 1 m/s 738 mmHg 56%
    12:00 +22°C° 0.2 mm 1 m/s 738 mmHg 57%
    13:00 +22°C° 0.2 mm 1 m/s 737 mmHg 59%
    14:00 +22°C° 0.2 mm 1 m/s 737 mmHg 61%
    15:00 +21°C° 0.7 mm 1 m/s 737 mmHg 69%
    16:00 +21°C° 0.7 mm 1 m/s 737 mmHg 77%
    17:00 +20°C° 0.7 mm 1 m/s 737 mmHg 85%
    18:00 +19°C° 0.4 mm 1 m/s 737 mmHg 86%
    19:00 +18°C° 0.4 mm 1 m/s 737 mmHg 88%
    20:00 +15°C° 0.4 mm 1 m/s 737 mmHg 90%
    21:00 +15°C° 0.2 mm 1 m/s 737 mmHg 91%
    22:00 +15°C° 0.2 mm 1 m/s 737 mmHg 93%
    23:00 +14°C° 0.2 mm 1 m/s 736 mmHg 95%

    Mâine, 18 Iulie, Joi

    Timp Temperatura Precipitaţii Vânt Presiune Umiditate
    00:00 +14°C° 0.5 mm 1 m/s 736 mmHg 96%
    01:00 +14°C° 0.5 mm 1 m/s 736 mmHg 97%
    02:00 +14°C° 0.5 mm 1 m/s 736 mmHg 98%
    03:00 +14°C° 1.5 mm 1 m/s 736 mmHg 98%
    04:00 +14°C° 1.5 mm 1 m/s 736 mmHg 99%
    05:00 +14°C° 1.5 mm 1 m/s 736 mmHg 99%
    06:00 +14°C° 3.8 mm 1 m/s 736 mmHg 99%
    07:00 +14°C° 3.8 mm 1 m/s 736 mmHg 99%
    08:00 +14°C° 3.8 mm 1 m/s 736 mmHg 99%
    09:00 +14°C° 1.5 mm 1 m/s 735 mmHg 98%
    10:00 +15°C° 1.5 mm 1 m/s 735 mmHg 98%
    11:00 +15°C° 1.5 mm 1 m/s 735 mmHg 97%
    12:00 +16°C° 0.4 mm 1 m/s 735 mmHg 95%
    13:00 +17°C° 0.4 mm 2 m/s 735 mmHg 93%
    14:00 +17°C° 0.4 mm 2 m/s 735 mmHg 90%
    15:00 +17°C° 1 mm 3 m/s 735 mmHg 92%
    16:00 +17°C° 1 mm 3 m/s 735 mmHg 93%
    17:00 +15°C° 1 mm 4 m/s 735 mmHg 94%
    18:00 +15°C° 0.3 mm 4 m/s 735 mmHg 95%
    19:00 +14°C° 0.3 mm 3 m/s 735 mmHg 96%
    20:00 +14°C° 0.3 mm 3 m/s 735 mmHg 97%
    21:00 +14°C° 0.1 mm 3 m/s 735 mmHg 98%
    22:00 +14°C° 0.1 mm 3 m/s 736 mmHg 98%
    23:00 +14°C° 0.1 mm 2 m/s 736 mmHg 98%

    Poimâine, 19 Iulie, Vineri

    Timp Temperatura Precipitaţii Vânt Presiune Umiditate
    00:00 +14°C° 0.1 mm 2 m/s 736 mmHg 99%
    01:00 +14°C° 0.1 mm 2 m/s 736 mmHg 99%
    02:00 +14°C° 0.1 mm 2 m/s 736 mmHg 99%
    03:00 +14°C° 0.4 mm 2 m/s 736 mmHg 99%
    04:00 +15°C° 0.4 mm 2 m/s 736 mmHg 99%
    05:00 +15°C° 0.4 mm 2 m/s 736 mmHg 99%
    06:00 +15°C° 0.9 mm 2 m/s 736 mmHg 98%
    07:00 +15°C° 0.9 mm 2 m/s 736 mmHg 98%
    08:00 +14°C° 0.9 mm 3 m/s 736 mmHg 98%
    09:00 +14°C° 0.6 mm 3 m/s 737 mmHg 98%
    10:00 +14°C° 0.6 mm 3 m/s 737 mmHg 97%
    11:00 +14°C° 0.6 mm 3 m/s 737 mmHg 97%
    12:00 +15°C° 0.7 mm 4 m/s 737 mmHg 96%
    13:00 +15°C° 0.7 mm 4 m/s 738 mmHg 96%
    14:00 +15°C° 0.7 mm 4 m/s 738 mmHg 95%
    15:00 +15°C° 0.2 mm 4 m/s 738 mmHg 94%
    16:00 +15°C° 0.2 mm 4 m/s 738 mmHg 93%
    17:00 +15°C° 0.2 mm 4 m/s 739 mmHg 91%
    18:00 +15°C° 0 mm 4 m/s 739 mmHg 92%
    19:00 +15°C° 0 mm 4 m/s 739 mmHg 93%
    20:00 +14°C° 0 mm 3 m/s 739 mmHg 94%
    21:00 +14°C° 0 mm 3 m/s 740 mmHg 95%
    22:00 +13°C° 0 mm 3 m/s 740 mmHg 96%
    23:00 +13°C° 0 mm 3 m/s 740 mmHg 97%

    20 Iulie, Sâmbătă

    Timp Temperatura Precipitaţii Vânt Presiune Umiditate
    00:00 +13°C° 0 mm 3 m/s 740 mmHg 97%
    01:00 +13°C° 0 mm 3 m/s 741 mmHg 97%
    02:00 +13°C° 0 mm 3 m/s 741 mmHg 97%
    03:00 +13°C° 0.1 mm 3 m/s 741 mmHg 97%
    04:00 +13°C° 0.1 mm 3 m/s 741 mmHg 97%
    05:00 +13°C° 0.1 mm 3 m/s 741 mmHg 97%
    06:00 +13°C° 0.1 mm 3 m/s 742 mmHg 96%
    07:00 +14°C° 0.1 mm 3 m/s 742 mmHg 95%
    08:00 +14°C° 0.1 mm 3 m/s 742 mmHg 94%
    09:00 +14°C° 0.2 mm 3 m/s 743 mmHg 93%
    10:00 +14°C° 0.2 mm 3 m/s 743 mmHg 93%
    11:00 +16°C° 0.2 mm 3 m/s 743 mmHg 93%
    12:00 +16°C° 0.2 mm 3 m/s 743 mmHg 90%
    13:00 +17°C° 0.2 mm 3 m/s 744 mmHg 88%
    14:00 +18°C° 0.2 mm 3 m/s 744 mmHg 85%
    15:00 +19°C° 0.3 mm 3 m/s 744 mmHg 84%
    16:00 +19°C° 0.3 mm 3 m/s 744 mmHg 84%
    17:00 +20°C° 0.3 mm 3 m/s 744 mmHg 83%
    18:00 +18°C° 0.2 mm 2 m/s 744 mmHg 88%
    19:00 +17°C° 0.2 mm 2 m/s 744 mmHg 92%
    20:00 +16°C° 0.2 mm 2 m/s 744 mmHg 97%
    21:00 +16°C° 0 mm 2 m/s 745 mmHg 97%
    22:00 +15°C° 0 mm 2 m/s 745 mmHg 98%
    23:00 +14°C° 0 mm 2 m/s 745 mmHg 98%

    21 Iulie, Duminică

    Timp Temperatura Precipitaţii Vânt Presiune Umiditate
    00:00 +14°C° 0 mm 2 m/s 745 mmHg 98%
    01:00 +14°C° 0 mm 2 m/s 745 mmHg 98%
    02:00 +13°C° 0 mm 2 m/s 746 mmHg 99%
    03:00 +14°C° 0 mm 2 m/s 746 mmHg 99%
    04:00 +14°C° 0 mm 2 m/s 746 mmHg 99%
    05:00 +14°C° 0 mm 2 m/s 746 mmHg 99%
    06:00 +15°C° 0 mm 2 m/s 746 mmHg 98%
    07:00 +15°C° 0 mm 2 m/s 746 mmHg 97%
    08:00 +16°C° 0 mm 2 m/s 746 mmHg 96%
    09:00 +18°C° 0 mm 2 m/s 746 mmHg 88%
    10:00 +19°C° 0 mm 2 m/s 746 mmHg 80%
    11:00 +22°C° 0 mm 1 m/s 747 mmHg 72%
    12:00 +21°C° 0.3 mm 2 m/s 747 mmHg 71%
    13:00 +23°C° 0.3 mm 2 m/s 746 mmHg 71%
    14:00 +23°C° 0.3 mm 2 m/s 746 mmHg 71%
    15:00 +23°C° 0.5 mm 2 m/s 746 mmHg 74%
    16:00 +23°C° 0.5 mm 2 m/s 746 mmHg 78%
    17:00 +21°C° 0.5 mm 2 m/s 746 mmHg 82%
    18:00 +20°C° 0.2 mm 2 m/s 746 mmHg 86%
    19:00 +20°C° 0.2 mm 1 m/s 746 mmHg 91%
    20:00 +18°C° 0.2 mm 1 m/s 746 mmHg 95%
    21:00 +18°C° 0.1 mm 1 m/s 746 mmHg 96%
    22:00 +16°C° 0.1 mm 1 m/s 747 mmHg 96%
    23:00 +15°C° 0.1 mm 1 m/s 747 mmHg 96%

    22 Iulie, Luni

    Timp Temperatura Precipitaţii Vânt Presiune Umiditate
    00:00 +15°C° 0 mm 1 m/s 747 mmHg 96%
    01:00 +14°C° 0 mm 1 m/s 747 mmHg 96%
    02:00 +14°C° 0 mm 1 m/s 747 mmHg 96%
    03:00 +14°C° 0 mm 1 m/s 747 mmHg 96%
    04:00 +14°C° 0 mm 1 m/s 747 mmHg 96%
    05:00 +14°C° 0 mm 1 m/s 747 mmHg 96%
    06:00 +15°C° 0 mm 1 m/s 747 mmHg 91%
    07:00 +18°C° 0 mm 1 m/s 747 mmHg 86%
    08:00 +20°C° 0 mm 1 m/s 747 mmHg 81%
    09:00 +20°C° 0 mm 2 m/s 748 mmHg 72%
    10:00 +23°C° 0 mm 2 m/s 748 mmHg 63%
    11:00 +24°C° 0 mm 2 m/s 748 mmHg 53%
    12:00 +24°C° 0 mm 2 m/s 748 mmHg 53%
    13:00 +25°C° 0 mm 2 m/s 748 mmHg 53%
    14:00 +25°C° 0 mm 2 m/s 747 mmHg 53%
    15:00 +25°C° 0.1 mm 2 m/s 747 mmHg 56%
    16:00 +25°C° 0.1 mm 2 m/s 747 mmHg 59%
    17:00 +24°C° 0.1 mm 3 m/s 747 mmHg 62%
    18:00 +23°C° 0.1 mm 2 m/s 747 mmHg 69%
    19:00 +20°C° 0.1 mm 2 m/s 747 mmHg 76%
    20:00 +18°C° 0.1 mm 2 m/s 747 mmHg 83%
    21:00 +17°C° 0 mm 2 m/s 747 mmHg 85%
    22:00 +16°C° 0 mm 2 m/s 748 mmHg 87%
    23:00 +15°C° 0 mm 2 m/s 748 mmHg 88%
    Arată mai mult